Flag Weather past 2 weeks in Port Said, Egypt

Now
59 °F

Clear.


Feels Like: 57 °F
Forecast: 64 / 68 °F
Wind: 10 mph from West

Location: Port Said Airport

Current Time: Nov 27, 2014 at 4:13:00 AM

Latest Report: Nov 27, 2014 at 3:00 AM


Visibility: 10 mi

Pressure: 30.04 "Hg

Humidity: 72%

Dew point: 50 °F

Location of Port SaidLocation

Historic Weather in Port Said — Graph

°F

Port Said temperature yesterday

Maximum temperature yesterday: 68 °F (at 1:00 PM)
Minimum temperature yesterday: 57 °F (at 6:00 AM)
Average temperature yesterday: 62 °F

Past Weeks' High & Low Weather Summary

 TemperatureHumidityPressure
High77 °F (Nov 13, 10:00 AM)94% (Nov 26, 3:00 AM)30.15 "Hg (Nov 26, 3:00 AM)
Low57 °F (Nov 26, 6:00 AM)47% (Nov 15, 2:00 PM)29.89 "Hg (Nov 14, 5:00 AM)
Average69 °F72%29.99 "Hg
* Reported Nov 12 3:00 AM — Nov 27 3:00 AM, Port Said, Weather by CustomWeather, © 2014

Note: Actual official high and low records may vary slightly from our data, if they occured in-between our weather recording intervals... More about our weather records

Advertising

Port Said weather history for previous 24 hours

 ConditionsComfort  
Time TempWeatherWind HumidityBarometerVisibility
3:00 AM
Nov 27
59 °FClear.10 mph72%30.04 "Hg10 mi
2:00 AM59 °FClear.12 mph72%30.04 "Hg10 mi
1:00 AM61 °FClear.12 mph68%30.04 "Hg10 mi
12:00 AM61 °FClear.10 mph63%30.04 "Hg10 mi
11:00 PM
Nov 26
61 °FClear.12 mph63%30.04 "Hg10 mi
9:00 PM61 °FPassing clouds.13 mph63%30.04 "HgN/A
6:00 PM64 °FPassing clouds.15 mph64%30.01 "HgN/A
5:00 PM64 °FPassing clouds.16 mph60%30.01 "HgN/A
4:00 PM66 °FScattered clouds.16 mph56%29.98 "HgN/A
3:00 PM68 °FScattered clouds.18 mph53%29.98 "HgN/A
2:00 PM66 °FScattered clouds.18 mph56%29.98 "HgN/A
1:00 PM68 °FScattered clouds.18 mph53%29.98 "HgN/A
12:00 PM66 °FScattered clouds.23 mph56%29.98 "HgN/A
11:00 AM66 °FScattered clouds.20 mph60%29.98 "HgN/A
10:00 AM63 °FScattered clouds.18 mph68%29.98 "HgN/A
9:00 AM59 °FScattered clouds.18 mph82%29.98 "HgN/A
8:00 AM59 °FScattered clouds.18 mph82%29.95 "HgN/A
7:00 AM59 °FScattered clouds.13 mph88%29.95 "HgN/A
6:00 AM57 °FPassing clouds.13 mph94%29.92 "HgN/A
5:00 AM59 °FClear.14 mph88%29.92 "Hg10 mi
4:00 AM59 °FClear.13 mph88%29.95 "Hg10 mi
Weather by CustomWeather, © 2014

See weather overviewHow to use our weather pages